Wind_Speed
59 60 61 58 54 52 52 52 51 51 50 49 49 50 51 50 49 46 45 45 44 43 43 42 41 39 38 35 33 33 32 29 25 23 25 25 24 25 25 24 22 21 20 17 14 13 13 14 16 16 17 17 17 18 18 18 18 17 18 19 21 23 22 22 22 20 19 18 18 18 16 14 13 12 12 12 12 13 12 12 12 12 13 13 11 10
59 59 57 53 53 54 54 52 51 51 49 47 47 49 49 49 47 45 44 44 44 44 43 42 41 40 38 36 34 33 32 28 24 25 27 27 25 25 25 24 22 21 19 17 15 13 13 13 15 16 17 17 17 17 18 18 17 17 16 16 17 18 20 21 21 20 19 19 18 17 16 15 13 13 13 12 12 11 10 10 10 11 12 12 10 10
59 57 53 53 56 56 55 53 51 51 49 47 47 47 47 47 47 45 44 43 44 45 45 43 42 40 39 37 35 33 30 28 27 28 29 28 26 25 25 23 21 20 17 16 14 12 12 13 14 15 15 16 16 16 17 17 17 17 16 14 15 18 19 20 20 20 20 20 19 18 17 16 15 14 13 12 11 9 7 7 8 9 11 10 10 9
56 55 55 57 57 55 55 54 53 52 50 48 47 46 46 46 46 46 44 44 46 46 45 44 42 41 40 39 36 34 31 30 30 30 30 29 27 25 25 23 20 17 15 14 13 11 12 12 12 13 14 16 16 16 17 17 17 17 17 17 19 21 20 19 19 19 20 20 18 17 17 16 15 15 14 12 10 8 7 7 9 9 9 10 10 9
54 55 57 56 55 55 55 54 54 52 50 48 47 47 45 45 46 45 44 45 46 46 45 45 44 43 43 41 38 35 34 33 33 32 30 30 28 26 24 22 19 17 15 14 13 13 13 12 13 13 14 15 15 16 17 18 18 19 19 20 21 20 19 19 19 19 19 19 17 17 16 16 16 15 14 12 11 9 8 9 10 9 9 9 9 8
54 55 54 53 53 55 55 54 53 51 50 48 48 47 44 44 45 45 44 45 45 46 46 46 47 47 45 42 39 38 37 35 34 33 31 30 27 24 22 20 18 16 15 14 14 14 13 13 13 14 15 16 15 15 16 18 18 18 20 20 19 19 19 19 19 18 17 17 17 16 16 17 16 14 13 12 10 8 9 11 10 8 8 8 7 7
54 54 52 52 52 52 53 53 52 50 49 48 47 45 44 44 45 44 45 45 45 46 46 47 48 47 45 42 40 39 38 37 36 35 32 29 25 21 19 18 17 15 15 14 14 13 12 12 12 14 15 14 12 12 14 15 16 17 18 18 19 19 18 18 18 17 17 18 18 17 17 16 15 13 12 10 8 9 11 10 8 7 7 7 6 7
53 54 53 52 51 51 52 51 49 49 49 48 46 44 43 44 44 44 44 45 46 46 46 46 46 46 45 42 40 40 39 39 38 36 32 27 23 20 18 18 17 16 15 14 12 11 11 11 11 12 11 10 10 12 14 15 15 17 17 17 18 18 17 17 16 16 17 18 18 17 16 15 14 13 11 9 10 12 12 9 7 6 6 6 6 7
53 54 53 51 51 51 50 48 48 49 49 48 46 43 43 43 43 43 43 44 46 47 47 45 45 47 46 43 41 41 41 40 38 34 31 26 23 21 20 20 19 17 15 13 11 11 10 11 11 11 12 12 13 15 16 15 15 15 15 16 17 18 18 17 16 16 17 19 18 16 14 13 13 11 10 11 13 12 10 8 6 5 6 6 7 8
54 54 52 51 50 49 47 48 49 49 49 49 45 42 42 42 42 42 42 43 45 48 48 46 46 48 47 44 43 44 44 41 35 31 29 26 22 20 20 21 20 18 16 14 12 11 10 11 12 13 15 15 15 15 15 14 14 15 15 16 17 18 19 19 19 18 18 18 17 14 13 12 10 10 11 14 13 10 8 6 5 5 7 7 8 9
54 53 52 51 49 47 48 49 50 49 50 48 44 42 41 42 42 42 42 42 46 49 48 46 47 48 48 47 45 45 42 35 30 29 28 24 18 16 18 20 20 18 17 15 14 12 11 11 12 14 15 15 14 13 11 12 14 15 16 16 17 18 19 20 20 18 18 17 15 13 11 10 10 12 14 14 11 9 8 6 5 6 8 8 9 11
53 53 51 50 50 50 50 50 50 50 50 47 44 43 43 42 42 42 42 43 47 49 47 47 47 49 51 49 46 43 37 30 28 27 26 22 16 15 18 19 19 19 18 16 15 14 13 12 12 14 14 14 13 10 9 12 15 16 17 17 17 17 18 19 18 17 17 16 14 12 11 12 14 14 14 12 10 9 7 5 6 8 9 10 11 12
52 51 50 52 54 53 52 51 51 51 50 48 46 46 46 45 44 44 44 45 48 48 47 47 49 51 53 49 44 41 35 30 27 25 24 20 16 16 18 19 19 19 18 17 16 15 14 13 13 14 14 13 12 10 10 14 17 17 17 17 16 16 16 16 16 16 17 17 15 14 14 15 14 13 12 11 9 7 5 5 7 9 10 11 12 13
52 51 52 55 56 54 53 52 52 52 52 50 49 50 51 50 49 49 47 47 49 48 46 46 48 52 52 48 44 39 33 27 23 23 22 20 19 19 18 18 19 19 19 18 17 15 14 13 13 15 15 14 13 12 12 13 15 16 16 15 15 14 14 14 15 15 15 15 15 16 16 15 13 12 11 10 8 6 5 6 9 10 11 12 13 13
53 53 52 52 52 53 53 51 50 51 51 50 50 50 52 52 51 51 49 48 48 48 46 45 49 53 52 48 42 35 31 28 26 23 22 23 24 21 18 17 18 18 18 17 15 14 13 12 13 15 16 15 14 15 14 13 13 14 15 15 15 14 13 14 14 14 14 14 14 15 15 14 12 11 10 8 6 5 5 8 10 11 11 12 12 14
52 51 49 49 50 51 52 51 51 51 50 49 49 51 52 50 48 47 46 45 44 45 47 47 50 53 51 46 39 33 33 34 32 29 27 27 26 21 18 18 17 17 17 16 14 13 13 13 14 16 16 15 16 16 15 14 14 15 16 17 17 16 16 16 16 15 14 13 13 14 13 13 11 10 8 7 6 6 7 9 10 11 10 11 13 15
50 48 47 49 50 51 52 52 52 52 50 49 51 51 49 47 46 45 43 42 42 45 47 47 49 51 49 45 39 36 36 37 35 32 29 28 26 22 20 19 18 18 16 15 14 14 14 15 15 16 15 16 16 16 16 15 15 16 16 17 17 18 18 18 17 15 14 13 13 13 12 11 10 8 8 8 8 8 8 9 9 9 10 12 14 16
49 47 47 49 50 51 51 51 51 50 49 48 50 50 47 47 47 44 43 43 44 46 46 46 48 49 48 46 42 40 39 38 35 32 30 29 25 22 20 19 20 19 18 17 17 16 16 15 16 16 16 17 17 17 17 16 16 17 17 16 16 17 18 18 17 15 15 14 13 13 11 10 9 9 9 10 10 9 8 7 8 9 11 13 16 17
50 48 47 49 50 50 50 50 50 49 47 46 48 49 49 50 49 46 46 47 47 46 46 45 46 48 48 45 42 40 39 39 35 32 30 27 21 18 19 20 21 19 18 18 18 17 17 16 17 17 17 17 17 17 16 16 17 17 17 15 15 17 18 17 16 16 15 14 14 13 11 10 10 10 10 10 10 8 7 7 9 11 13 15 17 19
50 48 47 49 49 48 48 50 51 50 48 47 48 49 50 50 49 47 48 49 46 42 41 42 44 46 46 43 39 36 36 36 34 31 28 22 16 16 18 19 20 17 16 16 17 17 16 16 17 17 17 17 17 17 17 17 18 17 16 15 15 16 18 17 17 17 16 15 14 13 12 11 11 11 11 10 9 7 7 8 10 12 14 16 18 20
49 46 45 46 45 46 48 49 49 48 49 51 52 52 52 50 48 48 49 48 44 37 33 37 43 43 41 38 36 34 33 31 28 26 24 19 15 16 16 16 16 16 16 16 17 17 16 16 17 17 17 17 17 17 17 17 18 17 16 15 15 17 19 19 18 17 16 15 14 13 13 13 13 12 11 9 8 8 9 10 11 13 15 17 19 22
46 43 41 42 43 46 47 46 45 46 48 50 51 53 54 53 52 52 52 49 44 38 31 31 35 36 35 34 34 34 33 30 26 24 22 18 17 17 15 12 12 12 14 15 16 16 16 16 17 17 17 17 17 17 17 17 18 17 16 15 16 17 19 20 20 19 18 16 15 15 15 14 14 13 11 9 9 9 10 11 12 14 16 19 21 23
41 39 37 40 45 45 43 42 43 44 45 47 48 52 55 55 54 54 53 49 45 40 34 29 27 27 29 31 31 33 34 29 25 26 25 22 21 20 16 13 11 11 12 14 15 16 16 17 17 16 16 18 18 18 18 18 18 17 17 16 17 19 20 21 21 20 19 17 16 16 16 16 15 13 11 10 11 11 10 11 13 15 18 20 23 25
36 35 34 39 45 43 37 37 39 40 43 45 47 51 55 56 55 53 50 46 43 40 37 32 27 25 24 25 28 31 33 31 28 28 28 26 25 24 22 19 17 16 15 14 15 15 15 15 14 13 15 18 19 19 19 19 18 18 16 16 18 20 21 22 22 21 20 18 18 17 17 17 16 14 13 12 12 11 11 13 15 17 19 22 24 26
32 32 33 36 40 39 34 35 38 41 44 46 47 52 56 56 56 53 49 44 41 39 37 35 33 29 25 24 28 30 31 31 31 31 31 30 29 28 27 26 24 21 18 16 16 15 14 14 13 12 14 17 19 20 20 20 19 19 17 16 18 19 21 22 22 22 21 19 19 18 17 17 16 15 14 13 12 12 13 15 17 19 21 23 25 27
33 32 32 33 36 40 39 39 41 43 45 46 47 52 56 57 57 56 51 47 43 38 33 33 33 33 31 29 31 32 32 32 32 33 33 32 31 31 30 28 25 21 19 20 19 18 17 17 16 15 15 17 20 21 21 21 21 20 19 19 19 20 21 22 23 22 21 20 19 18 18 18 17 16 14 13 13 14 15 17 19 21 22 25 27 28
35 33 34 33 36 40 39 38 39 41 44 47 49 52 56 58 58 56 53 50 46 37 30 28 28 31 34 35 35 34 34 34 34 34 33 32 32 32 31 28 23 21 23 23 23 22 22 21 20 18 17 19 21 22 22 23 23 22 21 21 21 21 22 23 24 23 22 21 20 19 18 17 17 16 15 15 15 16 18 20 21 22 24 26 28 30
35 35 35 34 36 36 34 34 38 41 45 47 49 52 56 58 58 56 54 51 45 39 33 27 26 27 29 33 36 35 35 35 35 33 33 32 32 31 29 26 23 23 24 24 24 24 25 25 24 22 20 21 23 24 25 25 25 24 22 22 23 24 24 24 25 24 23 22 20 19 18 17 17 16 16 16 17 18 20 21 22 23 25 27 29 30
36 35 36 34 34 35 34 36 39 42 45 46 47 50 53 57 58 55 54 51 45 39 35 29 27 27 27 29 33 35 36 36 34 33 32 31 29 27 24 22 22 23 24 25 25 26 26 27 26 25 24 23 25 27 27 27 26 24 22 22 23 25 25 25 25 25 24 22 21 19 18 18 18 18 18 18 19 20 21 23 24 25 27 29 30 31
35 35 36 33 35 36 36 39 42 44 46 46 45 47 50 55 57 54 51 50 45 38 34 30 27 28 29 30 30 33 36 36 34 33 29 25 23 22 21 21 22 24 24 25 25 26 27 27 27 27 26 25 26 28 28 28 26 24 22 22 24 26 26 25 25 25 24 23 21 20 19 19 20 20 20 20 21 22 24 25 25 27 28 30 30 31
35 35 35 33 34 37 37 40 45 46 48 47 44 44 48 53 55 53 49 48 45 39 33 30 27 25 27 30 29 28 30 30 30 27 23 20 18 18 18 20 22 24 25 25 26 26 27 27 27 27 26 26 27 28 29 28 27 24 23 23 25 27 27 26 26 26 25 24 23 21 21 21 22 23 23 23 24 24 26 27 27 28 30 30 31 31
34 34 35 33 34 37 38 41 45 47 48 47 43 43 48 51 51 51 49 45 43 39 33 31 30 26 23 25 26 25 25 25 23 20 18 17 16 15 16 17 19 22 23 25 25 26 26 27 27 26 26 26 27 28 29 29 27 25 24 25 27 29 29 28 28 28 27 26 24 23 23 24 25 25 25 25 25 26 27 28 29 30 31 31 31 32
32 33 35 34 35 37 39 42 45 46 46 46 44 44 47 49 49 49 49 44 40 38 34 32 32 30 26 24 24 24 25 25 21 18 17 17 16 15 17 18 19 20 21 22 23 25 26 26 27 26 26 26 27 29 30 29 28 26 26 27 29 30 30 30 29 29 28 28 27 26 26 27 28 27 27 27 27 27 29 30 30 31 31 31 31 32
33 34 35 35 36 37 39 43 45 44 44 45 46 47 48 48 47 48 48 46 41 39 36 33 33 33 31 29 26 24 24 23 20 17 16 16 17 19 19 19 18 18 18 19 21 24 25 25 25 26 25 25 26 28 29 29 28 28 29 30 31 32 32 31 30 30 29 29 29 29 29 29 29 29 28 28 29 30 31 32 32 32 32 31 31 32
34 35 36 36 37 36 39 44 44 42 44 45 45 48 49 47 45 45 46 47 45 42 38 36 36 36 34 32 30 27 24 22 22 22 20 18 19 21 21 19 17 17 18 19 21 23 24 24 24 24 24 24 25 25 27 28 29 29 29 30 31 32 32 31 30 30 30 31 31 31 31 30 30 30 30 30 32 33 33 33 33 32 32 31 31 32
34 36 36 35 36 36 39 44 45 43 44 45 45 48 49 47 44 43 44 44 44 43 40 39 39 36 34 34 33 31 29 28 27 27 24 22 23 23 22 21 20 19 19 21 22 23 23 24 24 24 24 25 25 24 25 26 28 29 30 30 31 32 32 32 31 31 31 32 33 33 32 30 30 31 32 33 34 34 34 34 32 31 31 31 31 32
33 35 37 35 35 37 39 44 46 45 46 46 45 46 48 46 44 43 43 42 42 42 41 40 39 36 35 34 33 33 32 31 30 28 25 24 24 24 23 22 21 19 19 21 23 25 25 24 23 23 23 23 24 25 25 25 26 28 29 31 31 32 32 32 32 32 33 33 34 34 33 32 32 32 33 33 34 34 33 32 31 30 30 31 32 32
34 35 37 37 36 36 38 43 46 47 47 46 45 46 47 46 45 45 45 43 43 42 41 40 39 38 37 36 34 34 35 34 33 28 24 22 22 22 23 23 22 20 19 21 24 25 25 25 25 25 25 24 24 25 26 26 26 27 28 29 30 31 32 33 33 34 34 34 36 36 34 33 32 32 33 33 33 32 31 30 30 29 30 31 32 32
35 36 36 36 36 36 36 40 46 48 48 47 46 47 48 47 47 47 46 45 46 44 41 41 41 40 40 40 39 39 38 36 32 27 24 23 22 23 24 24 23 22 23 25 27 29 30 30 31 31 28 26 26 26 27 28 28 28 28 28 29 30 31 32 32 33 34 35 36 36 34 32 32 32 32 32 31 30 30 29 29 29 30 31 32 32
36 35 35 35 35 35 35 38 43 48 49 48 46 47 48 48 49 48 46 46 48 45 41 41 41 41 41 41 40 39 36 33 31 28 28 28 27 28 28 28 28 29 31 33 33 33 32 32 32 31 29 27 27 28 29 29 29 29 29 29 30 30 31 31 32 33 35 36 36 35 34 32 32 32 32 31 30 29 29 29 29 29 29 30 31 32
36 33 33 34 35 34 33 36 41 46 48 48 47 47 47 47 48 48 46 46 46 44 41 40 39 39 39 38 37 35 34 34 33 33 33 32 31 31 31 31 33 35 36 36 35 34 33 32 32 31 30 29 29 29 31 31 31 31 31 31 31 30 31 32 33 35 36 36 35 35 34 33 32 32 31 30 30 29 29 29 29 28 29 30 31 31
36 34 33 33 34 34 32 33 37 40 42 44 44 44 43 44 46 48 48 46 45 44 44 42 40 39 38 36 35 35 35 37 37 37 36 35 33 32 32 33 35 36 37 37 37 36 36 35 35 34 33 31 30 31 32 33 33 33 33 33 32 33 33 34 34 36 36 36 36 36 35 33 33 32 31 30 30 29 29 29 28 28 29 30 31 31
32 34 34 33 33 33 32 31 32 33 34 35 36 36 35 38 43 47 49 48 46 45 45 45 43 41 39 39 39 38 39 40 40 39 38 36 35 34 34 34 35 36 36 37 37 37 37 37 37 36 35 34 33 33 34 35 35 35 35 34 35 35 35 35 36 37 37 37 38 38 36 34 33 32 32 31 31 30 29 29 29 29 29 30 31 32
26 28 28 29 28 28 29 30 30 29 27 26 27 28 27 29 33 39 45 49 50 49 49 48 48 47 45 44 44 44 44 44 43 41 40 39 39 38 36 35 35 35 35 35 35 35 36 36 37 37 37 36 35 35 36 37 37 37 37 37 37 37 37 37 37 37 38 38 37 36 34 34 34 33 33 33 32 30 29 29 29 30 30 31 32 32
28 27 25 25 24 24 25 27 27 25 24 24 24 25 25 25 26 29 33 39 45 48 49 49 48 47 44 42 42 43 44 45 44 44 42 41 41 39 36 34 33 33 33 34 33 33 33 35 36 37 37 37 36 36 37 37 38 38 38 38 38 37 37 38 38 39 39 38 37 36 35 35 35 35 34 33 32 30 29 30 31 31 31 32 32 33
32 31 29 28 28 27 26 26 26 25 25 26 26 26 26 26 27 27 27 30 33 36 38 39 39 38 37 36 36 38 39 41 41 41 41 40 39 37 34 32 32 32 32 32 31 31 32 34 34 34 35 35 36 36 37 37 37 37 38 38 38 37 37 38 39 39 39 39 39 40 40 38 37 36 34 33 31 30 30 31 32 32 32 32 33 33
34 34 33 33 32 32 31 30 29 28 27 27 28 28 29 29 29 28 29 29 30 30 30 31 32 33 33 33 33 34 35 36 36 36 36 36 35 34 33 32 32 33 33 33 33 33 33 34 34 33 33 34 35 36 37 38 38 38 38 38 38 38 38 38 39 39 39 39 39 40 40 38 36 35 34 32 31 31 31 32 32 32 32 32 33 33
31 33 35 36 36 35 34 33 32 31 30 30 30 30 32 32 32 30 30 31 31 30 31 31 32 32 32 32 32 32 32 33 32 32 31 31 30 30 29 29 31 32 33 34 34 34 33 33 33 33 33 34 35 36 37 38 39 39 38 38 38 38 38 39 39 39 39 39 39 39 39 38 37 36 34 32 32 31 31 32 32 32 32 33 33 34
26 27 30 33 34 34 34 34 33 33 33 33 33 33 33 33 33 32 32 33 33 32 32 32 32 33 33 33 32 32 32 31 30 29 28 27 27 27 26 26 27 29 30 31 32 31 31 30 31 31 32 34 35 36 37 38 39 39 39 38 38 38 38 38 38 38 39 39 39 39 39 38 37 36 34 32 31 31 31 33 32 32 33 34 34 35
23 25 26 27 28 29 30 31 31 32 32 32 32 33 33 33 33 33 33 34 34 33 32 31 31 31 31 32 32 31 30 29 28 28 27 27 26 26 26 26 27 27 28 29 30 30 30 30 30 31 31 32 34 35 37 38 38 39 39 38 38 38 38 38 38 38 39 40 40 40 40 39 38 36 33 32 31 30 32 33 32 33 34 35 35 36
19 22 24 25 24 24 24 26 28 29 31 31 31 31 31 31 32 32 32 33 33 33 33 32 31 30 30 31 31 30 29 29 28 28 27 27 26 26 27 27 28 28 28 29 30 30 31 31 31 31 31 31 33 35 37 38 38 38 38 37 37 37 38 38 38 37 38 40 40 39 40 39 37 35 33 32 31 31 32 33 33 34 35 35 36 36
Wind_Direction
217 218 218 218 218 219 219 219 219 220 220 221 223 224 224 224 223 220 218 218 219 220 224 228 231 233 236 238 239 240 241 241 241 245 248 245 242 246 251 256 262 266 270 272 271 269 269 270 275 283 288 287 282 278 272 265 259 254 254 255 255 254 254 254 255 258 262 267 272 265 255 257 260 257 257 260 263 267 270 272 272 267 256 244 236 235
216 217 217 217 218 218 217 217 218 219 219 219 221 223 223 223 223 219 217 217 218 220 222 225 228 230 233 234 236 239 241 241 241 245 246 243 242 245 251 257 261 266 271 275 276 277 276 276 281 287 290 287 282 276 271 265 258 254 255 254 252 254 257 258 258 260 265 274 278 265 253 256 258 256 257 259 263 266 270 274 270 258 242 230 224 227
216 217 215 216 216 216 216 215 216 218 217 217 219 222 222 221 221 217 214 215 218 219 221 223 225 227 230 231 233 235 238 239 238 241 243 244 245 248 253 259 264 267 271 276 279 279 277 278 284 288 289 286 281 274 269 265 260 256 252 252 261 267 265 261 260 262 266 274 273 258 249 253 255 254 255 258 261 262 265 262 245 230 224 224 229 233
217 215 214 215 215 215 215 214 214 215 215 215 216 218 220 220 220 217 212 211 215 218 220 222 223 225 227 228 228 231 233 234 235 237 242 246 249 251 254 259 264 266 268 272 275 276 274 275 281 285 285 284 281 273 268 264 260 255 251 260 275 275 267 261 260 262 266 267 260 248 247 253 254 254 252 252 251 252 254 238 222 222 232 240 244 245
216 214 214 214 214 214 214 213 213 214 213 213 213 215 217 217 218 215 210 210 214 216 218 221 223 224 225 225 225 227 229 230 233 236 242 247 250 251 253 257 259 261 264 266 267 268 268 273 279 282 282 282 280 274 268 263 258 252 254 266 275 271 264 262 262 264 264 258 246 242 247 252 253 250 245 243 243 246 244 229 229 243 253 251 249 250
213 214 213 213 213 214 213 213 212 213 213 211 212 213 214 215 216 214 210 210 213 215 216 218 221 223 224 224 223 224 227 229 233 237 241 245 248 251 253 255 257 259 261 264 265 266 270 276 280 281 280 278 276 272 268 262 257 255 260 267 269 265 264 266 266 264 257 246 240 243 248 250 249 243 238 238 239 244 240 232 238 251 250 247 247 251
211 212 211 211 213 213 214 213 211 212 212 211 210 211 212 213 213 212 210 209 212 215 216 217 221 223 224 224 223 224 226 228 231 234 238 241 244 247 252 254 254 255 258 263 267 268 271 275 278 281 278 269 264 264 263 262 260 261 264 264 263 263 266 270 269 260 245 238 239 243 244 245 244 236 232 236 238 236 235 233 236 241 242 246 249 255
208 210 209 209 211 212 213 212 211 212 211 210 208 208 211 213 212 211 210 210 210 214 217 218 221 225 225 224 224 225 227 228 229 232 235 239 243 245 247 250 250 250 253 260 263 264 269 274 277 277 267 252 254 262 265 267 265 264 262 260 262 265 270 272 264 251 239 236 238 239 239 241 238 229 225 232 234 226 224 226 228 231 241 250 255 261
207 209 207 207 209 210 210 210 211 211 210 209 206 204 208 210 210 209 209 211 211 213 216 216 218 224 224 223 224 226 227 228 229 232 236 239 243 242 240 243 246 247 249 252 253 258 268 274 271 263 253 253 263 269 271 269 263 259 256 257 262 268 270 266 255 245 239 238 239 238 237 238 237 233 227 226 224 220 222 227 224 228 243 251 257 264
206 207 205 205 206 207 207 208 210 210 210 208 202 201 205 207 208 208 208 211 214 215 215 214 215 221 223 220 222 226 226 227 228 230 235 237 240 240 239 242 243 243 244 244 248 257 268 271 265 258 256 261 267 270 270 264 255 254 254 257 262 265 264 260 254 248 244 243 240 234 233 235 238 239 229 221 219 220 224 220 214 232 246 254 262 269
204 204 204 202 203 204 206 207 207 207 209 206 199 197 201 204 206 206 206 210 216 217 214 214 215 220 223 220 220 225 227 228 229 231 234 235 237 241 241 241 239 236 237 238 245 255 263 266 263 261 261 262 262 264 262 251 249 253 256 260 263 262 259 256 254 250 246 243 233 226 230 233 231 228 222 219 219 218 210 198 211 236 247 257 267 272
203 203 201 199 200 202 204 206 205 205 206 203 196 193 197 201 204 206 206 209 214 214 211 215 218 219 223 221 219 223 225 224 225 228 231 232 232 234 236 235 232 229 230 236 246 255 261 265 265 262 259 253 251 252 249 243 247 252 256 261 263 258 253 251 251 249 247 242 228 219 225 225 221 221 220 219 217 211 199 196 224 243 255 264 270 275
203 203 200 198 199 200 201 203 203 204 203 200 194 191 193 198 201 205 207 208 212 212 209 214 219 221 224 223 220 220 220 218 221 226 228 229 229 231 232 232 230 228 231 241 250 255 259 262 263 259 251 245 243 242 244 245 247 250 256 260 257 251 247 247 249 248 246 241 225 213 218 222 220 220 220 216 211 206 200 212 235 251 262 269 276 282
201 202 201 200 199 199 200 201 202 204 202 198 195 193 194 197 200 204 206 208 211 212 211 214 221 224 226 224 220 219 216 212 216 225 230 230 229 229 229 228 229 232 239 248 253 253 255 257 259 256 249 245 242 240 245 246 243 246 252 252 246 241 241 245 248 246 242 236 222 213 217 220 217 215 214 210 209 211 217 232 247 258 267 276 285 293
201 202 201 200 200 200 200 199 201 205 202 197 195 195 196 200 203 205 205 207 210 212 212 214 221 225 225 224 221 216 211 206 205 214 224 229 227 225 223 223 230 241 249 253 250 245 246 249 253 254 251 248 242 240 247 246 239 239 243 241 235 234 240 246 250 247 238 226 215 211 214 214 211 211 213 215 221 231 241 252 260 267 276 286 295 301
203 202 200 200 201 201 201 198 199 203 202 196 193 194 198 202 206 206 205 207 210 213 215 215 220 225 226 225 220 213 212 210 209 212 219 225 224 219 219 226 240 252 252 247 241 239 242 246 251 253 252 247 239 239 247 246 239 236 235 233 232 235 242 249 253 248 232 216 208 207 207 208 210 214 223 234 244 253 256 259 264 273 285 295 300 302
203 200 199 200 200 201 202 199 199 201 200 196 195 198 200 200 201 200 201 206 211 216 219 218 220 225 227 225 219 214 217 220 219 217 220 225 223 220 225 237 249 253 245 237 236 238 240 242 245 249 248 241 235 237 242 241 240 238 236 234 236 239 243 247 248 240 225 214 209 207 207 210 216 226 239 250 257 261 260 259 267 282 294 299 301 303
201 199 199 201 200 201 203 200 199 200 198 195 197 199 195 192 194 195 197 204 210 216 220 219 220 224 226 225 220 215 218 224 223 219 222 227 224 225 235 245 250 248 240 235 237 239 239 242 245 247 244 236 232 234 235 236 239 242 242 240 241 244 244 243 239 229 220 215 210 210 213 218 228 238 247 254 259 260 259 266 280 294 298 300 302 304
199 198 199 201 200 200 203 201 199 199 195 193 197 197 191 190 192 192 194 202 208 215 220 221 221 224 225 225 223 220 222 227 225 222 225 230 230 237 247 248 245 243 239 236 238 240 242 246 250 249 244 236 232 233 233 236 243 245 244 243 244 245 241 236 229 220 216 213 213 215 220 227 235 242 247 250 251 254 264 281 292 296 297 300 304 308
197 196 198 201 200 200 203 203 200 197 192 191 195 194 191 192 192 191 194 201 206 213 222 223 223 225 225 225 224 224 226 228 228 229 233 238 243 246 244 237 233 233 234 233 235 237 239 243 247 245 239 233 230 231 231 236 244 248 247 246 245 239 229 223 218 215 213 213 217 221 226 233 238 239 241 241 244 257 274 285 289 292 296 302 308 313
195 194 198 200 200 201 203 203 202 198 192 191 192 190 190 193 192 192 196 201 205 211 221 226 227 226 226 226 224 222 225 229 233 236 239 239 237 233 230 228 230 234 231 225 226 229 230 235 239 238 234 231 231 232 232 235 242 248 249 249 244 232 220 216 215 213 213 217 221 226 231 235 236 235 234 236 248 265 274 280 286 293 301 307 313 315
192 192 197 198 198 201 201 201 202 200 195 194 193 189 189 191 191 193 198 202 207 210 215 225 230 229 229 228 225 223 224 227 231 231 232 231 225 222 223 224 226 228 224 221 222 224 228 233 236 235 232 228 229 231 233 237 242 248 250 249 240 227 219 218 217 215 217 219 222 228 232 233 232 229 229 238 253 263 269 279 290 299 306 312 314 314
188 189 196 197 196 197 199 200 200 198 195 195 193 190 190 192 192 195 198 201 207 212 214 220 227 227 228 228 226 225 224 223 223 227 233 234 225 217 215 213 214 226 232 229 227 225 229 233 232 230 226 222 222 226 230 235 241 246 249 245 235 226 223 222 221 218 218 219 222 228 231 230 228 227 232 243 253 260 270 283 294 301 307 311 312 311
181 185 192 197 195 193 196 200 199 195 193 193 192 190 191 193 194 196 199 203 210 215 217 220 222 220 221 224 224 224 225 224 227 233 238 236 227 221 220 224 234 245 246 237 229 227 230 232 228 224 223 221 220 224 229 234 240 245 246 240 231 226 226 226 224 221 218 218 224 229 230 229 230 233 237 244 251 262 276 287 296 301 306 308 309 310
177 181 187 193 192 188 189 193 193 190 190 191 190 190 192 194 195 197 200 206 212 218 222 224 225 221 216 218 223 224 226 228 231 235 235 233 231 230 234 241 248 250 241 229 225 227 234 237 234 226 222 222 223 226 230 234 238 242 240 235 229 228 229 228 226 222 220 221 225 227 231 233 234 238 241 248 257 269 281 290 296 301 304 306 307 308
173 178 182 186 187 189 190 190 191 189 187 188 189 190 193 194 196 198 201 207 211 215 221 226 228 228 223 222 225 226 228 230 232 235 236 237 239 242 247 252 253 244 233 228 229 232 236 238 237 228 222 223 226 228 232 235 238 239 238 235 233 234 233 231 228 224 222 224 226 228 233 236 239 243 248 256 266 276 285 291 296 300 303 304 305 306
173 179 181 183 186 192 193 191 192 191 187 187 188 190 193 195 198 200 203 208 210 211 218 225 229 232 231 230 230 230 231 233 235 239 242 246 250 255 259 259 251 235 228 230 233 234 233 233 233 231 225 223 226 229 233 236 238 239 237 237 239 240 238 235 231 227 224 227 230 231 235 239 242 248 254 262 270 279 286 290 294 298 300 301 302 303
173 179 182 184 186 188 188 187 188 187 187 187 187 189 192 196 200 203 205 208 211 213 219 224 227 231 234 236 237 236 237 237 239 244 249 255 259 262 262 257 245 232 229 230 231 230 229 228 230 231 227 222 225 230 233 236 239 240 239 240 241 242 242 238 233 229 226 228 231 233 236 241 245 251 256 262 270 277 282 286 290 294 296 297 299 301
175 179 179 181 182 182 182 184 185 184 186 188 187 189 192 196 200 204 206 208 211 216 220 223 228 231 234 240 242 241 242 243 246 252 256 259 260 257 252 245 237 233 232 230 228 225 225 227 230 232 228 221 223 230 234 237 240 242 243 245 246 246 245 241 236 232 229 229 231 234 239 243 247 252 256 261 267 272 277 282 286 290 293 294 296 299
178 179 177 177 178 179 180 182 183 184 187 188 187 189 192 196 201 204 207 209 212 216 218 219 226 232 233 238 243 244 245 246 248 250 250 251 249 245 240 233 226 225 225 224 223 222 224 227 230 232 230 224 223 230 235 238 241 243 244 246 247 247 246 242 237 234 232 233 235 237 241 246 251 255 258 262 266 271 275 279 283 287 290 292 294 297
180 181 180 179 179 180 181 183 184 185 188 188 186 190 194 197 201 205 208 210 213 216 217 216 219 224 227 231 235 236 238 239 239 239 239 236 232 229 227 223 219 218 217 218 219 221 224 227 230 233 234 230 227 230 235 238 240 241 242 243 245 246 246 243 239 236 236 237 238 240 243 249 253 256 260 264 268 272 275 279 282 285 288 291 293 296
180 181 181 181 181 182 183 185 186 186 189 189 189 194 197 197 200 205 208 210 212 215 216 215 215 215 217 223 226 226 227 228 231 234 231 224 218 214 212 210 213 216 217 219 221 223 226 228 230 234 237 236 234 233 236 239 240 241 241 242 243 245 246 243 240 239 239 239 240 241 245 251 255 259 262 266 270 273 276 279 282 285 288 290 292 295
180 182 181 181 184 186 185 186 186 186 188 190 194 198 198 198 201 205 207 209 211 213 214 215 217 218 218 222 225 228 231 233 234 234 226 217 212 209 205 203 206 211 215 219 222 224 227 229 232 235 237 238 237 236 237 238 239 239 240 240 241 244 245 243 241 241 242 242 242 243 247 251 256 260 264 267 271 275 278 280 282 284 287 289 290 295
183 184 183 183 187 188 188 187 186 187 189 191 196 199 198 199 204 206 206 209 212 213 213 215 219 221 224 226 226 227 232 236 233 228 221 216 210 206 202 201 203 208 214 219 222 224 226 228 231 234 237 238 238 239 240 241 240 238 238 240 242 244 245 245 244 244 245 246 247 247 249 253 257 261 265 269 273 276 278 280 281 283 285 287 290 295
184 186 186 187 189 190 190 189 186 188 190 193 197 201 201 202 205 207 208 211 214 216 215 217 221 225 228 229 226 223 224 225 224 222 220 217 211 205 203 207 218 230 234 230 226 225 225 227 228 231 234 237 239 241 243 244 245 244 242 242 245 247 249 249 247 246 247 249 251 252 253 255 259 264 268 272 275 276 278 279 279 281 283 285 289 295
185 187 189 190 192 194 194 190 189 191 192 193 198 203 203 204 207 209 210 212 216 218 219 221 224 226 227 227 225 223 223 225 228 230 228 221 216 216 221 229 238 242 237 230 226 227 229 230 232 234 236 240 243 246 247 247 247 248 246 244 245 248 250 251 249 248 249 251 254 256 257 258 261 266 270 272 274 275 276 277 277 278 281 284 289 295
188 189 191 194 196 199 198 194 193 196 196 195 199 204 206 206 208 209 210 213 216 219 221 224 224 222 223 225 226 227 230 235 240 243 241 234 230 233 238 239 237 236 232 228 228 230 232 233 234 237 241 244 247 250 251 250 249 249 248 246 246 247 249 251 251 251 253 254 257 259 260 262 264 268 271 272 272 273 274 274 275 276 279 284 290 294
186 187 191 196 199 201 201 198 198 199 199 198 200 205 207 207 208 210 211 214 218 220 223 226 226 224 225 228 230 235 241 246 248 247 247 247 245 240 237 237 238 238 234 229 227 229 233 237 241 246 250 250 248 249 249 250 250 250 250 251 250 249 250 251 252 254 255 256 258 260 262 264 266 268 268 269 269 270 270 271 272 275 280 285 289 294
185 186 189 193 197 199 200 201 202 202 202 202 203 207 208 207 209 211 212 215 220 222 224 227 229 231 233 236 240 244 247 249 249 250 253 254 249 240 237 241 243 238 233 234 238 242 245 247 250 252 252 249 246 246 247 248 249 250 252 253 253 253 253 254 255 257 258 257 258 261 263 265 266 266 265 265 266 266 267 269 273 276 280 284 289 295
186 187 189 191 194 196 197 200 202 202 203 204 206 209 210 209 210 211 212 216 221 222 224 229 232 235 237 240 242 244 245 247 250 254 256 254 248 243 244 248 248 245 245 249 253 254 252 251 251 250 248 245 242 242 245 246 247 249 250 251 253 254 255 256 257 257 258 259 260 263 264 265 264 263 263 263 264 265 268 271 273 275 279 284 289 295
191 189 191 192 194 195 196 199 200 201 203 205 207 211 212 212 212 211 212 217 221 222 223 227 230 232 234 236 238 240 244 249 251 253 253 252 251 249 250 252 253 254 255 257 257 256 254 252 251 250 248 244 241 241 242 244 245 247 248 250 252 253 254 255 256 257 258 260 262 262 262 262 261 261 262 263 264 267 270 271 272 274 278 283 289 294
194 192 192 193 194 194 194 195 198 200 203 206 209 213 215 214 214 213 214 217 221 223 224 225 227 228 229 232 237 240 245 249 252 253 255 256 256 254 254 255 257 258 258 257 257 256 253 251 249 248 248 246 243 242 242 243 244 245 247 249 251 252 253 254 256 258 259 260 261 261 261 260 260 261 263 264 266 268 269 269 270 273 277 282 288 293
194 195 197 197 197 197 195 195 197 199 201 204 208 211 213 214 215 216 217 219 221 224 226 226 227 227 229 235 240 243 245 248 251 254 257 259 260 260 259 259 258 257 255 254 254 253 253 252 251 249 248 246 244 242 242 243 244 245 247 249 250 251 252 253 255 257 259 261 262 261 260 259 260 262 263 265 267 268 268 267 268 271 275 280 286 292
200 200 202 203 201 199 197 197 199 202 203 203 205 207 209 212 214 215 218 220 222 225 227 229 230 232 237 242 245 245 245 247 251 254 256 259 261 262 262 261 258 256 255 254 253 252 251 252 251 250 249 246 244 243 242 243 245 246 248 249 250 251 252 253 255 256 258 261 262 259 257 258 260 262 265 267 269 268 266 265 266 269 274 279 285 290
210 210 211 211 207 201 198 198 202 207 211 214 215 217 217 217 216 216 217 220 223 226 229 232 235 238 240 242 242 243 245 246 249 252 254 256 257 258 258 256 255 254 255 255 255 254 252 251 251 250 249 248 247 245 245 245 246 247 249 250 251 252 253 253 254 255 257 259 260 260 262 264 264 265 267 268 268 265 263 263 265 269 273 278 283 288
218 217 218 218 217 215 212 211 213 216 220 224 227 229 229 227 225 224 224 224 224 226 228 231 234 237 238 238 237 238 240 242 245 247 248 250 251 251 251 251 251 251 252 254 255 254 252 251 251 251 251 250 249 248 248 248 248 248 249 250 252 253 254 255 255 256 257 258 259 262 265 266 266 266 267 267 265 263 262 263 266 269 273 278 282 285
225 225 223 223 224 225 225 225 225 224 225 226 228 231 233 233 231 231 231 230 229 229 230 231 232 234 236 237 237 236 236 238 240 241 242 243 244 245 246 247 248 249 249 250 251 251 251 252 253 254 254 252 251 250 250 250 250 250 251 252 254 255 256 257 258 259 260 260 261 262 264 265 265 266 266 266 265 263 263 264 267 270 273 276 279 282
226 228 229 228 229 230 231 231 230 228 226 226 228 230 232 232 232 233 232 232 233 235 236 236 237 238 239 240 240 240 240 240 241 242 243 243 243 244 244 244 245 246 247 248 250 251 252 253 254 254 254 253 252 252 251 251 252 252 252 253 255 256 258 259 260 260 261 261 262 262 263 264 265 266 266 266 265 264 263 264 266 268 271 274 277 280
222 225 227 229 230 231 232 233 232 232 231 230 230 231 232 232 233 234 234 235 237 239 240 241 241 242 242 242 242 241 242 242 244 245 246 245 244 243 244 244 244 245 246 248 250 252 253 253 254 254 253 253 252 252 252 252 252 252 252 253 255 257 259 260 261 263 263 263 263 264 264 265 266 266 267 266 265 263 263 264 265 267 269 272 276 279
220 222 223 223 226 228 230 232 233 234 235 234 232 231 231 232 233 234 234 235 236 237 238 240 241 242 242 242 242 241 242 242 242 242 243 243 243 243 244 245 245 245 247 248 250 251 252 252 253 253 253 253 253 253 252 253 253 253 253 254 256 258 260 261 263 264 265 265 265 266 266 266 266 266 266 264 263 262 262 262 264 266 269 272 275 277
218 221 220 219 220 222 225 228 229 231 233 233 232 230 229 229 230 232 233 234 235 235 235 236 237 238 239 240 241 241 242 242 241 241 241 242 243 245 246 248 249 249 250 250 251 251 252 252 252 252 253 253 253 253 253 254 254 255 256 257 258 260 261 262 263 264 264 265 266 266 265 264 265 265 265 263 262 261 262 263 265 267 268 271 274 275
Height
5669 5674 5680 5690 5699 5705 5709 5712 5716 5720 5724 5729 5734 5738 5743 5747 5752 5759 5764 5767 5770 5772 5775 5777 5780 5782 5785 5787 5789 5790 5792 5794 5796 5799 5801 5802 5804 5805 5805 5806 5806 5806 5807 5808 5810 5811 5811 5812 5812 5812 5813 5814 5815 5815 5816 5816 5816 5817 5817 5818 5819 5819 5820 5821 5822 5823 5824 5825 5824 5824 5824 5824 5824 5823 5822 5822 5822 5822 5822 5822 5822 5823 5823 5824 5825 5826
5664 5670 5682 5693 5697 5699 5702 5707 5712 5716 5721 5727 5731 5734 5739 5744 5749 5756 5761 5764 5766 5769 5772 5774 5777 5779 5782 5784 5786 5787 5789 5791 5794 5796 5797 5798 5800 5802 5803 5803 5804 5804 5805 5806 5808 5809 5810 5810 5810 5810 5811 5812 5812 5813 5813 5814 5814 5815 5815 5816 5817 5818 5818 5818 5819 5820 5821 5822 5822 5822 5822 5822 5821 5820 5820 5820 5820 5820 5820 5820 5820 5821 5822 5823 5824 5825
5661 5673 5684 5687 5688 5692 5697 5703 5708 5713 5718 5723 5727 5731 5737 5741 5746 5752 5757 5760 5762 5765 5768 5771 5774 5776 5778 5781 5783 5784 5787 5789 5791 5792 5793 5794 5797 5799 5800 5801 5801 5802 5803 5805 5806 5807 5808 5808 5808 5808 5809 5809 5810 5810 5811 5811 5812 5813 5814 5814 5815 5815 5816 5816 5816 5817 5818 5819 5820 5820 5820 5819 5819 5818 5818 5818 5818 5819 5819 5819 5819 5820 5821 5822 5822 5823
5663 5673 5676 5676 5681 5688 5693 5699 5703 5708 5714 5719 5724 5728 5733 5738 5742 5747 5752 5755 5757 5761 5765 5768 5770 5772 5774 5777 5779 5781 5783 5785 5787 5788 5790 5792 5795 5797 5798 5799 5799 5800 5802 5803 5804 5805 5805 5806 5806 5806 5807 5807 5807 5808 5809 5810 5811 5811 5812 5812 5813 5813 5813 5813 5814 5815 5816 5817 5817 5818 5817 5817 5816 5816 5816 5816 5816 5817 5817 5818 5818 5819 5820 5820 5821 5821
5661 5665 5667 5672 5679 5684 5688 5693 5698 5704 5710 5716 5720 5724 5729 5734 5738 5743 5748 5752 5754 5758 5761 5764 5766 5767 5769 5772 5776 5778 5780 5782 5784 5786 5788 5790 5792 5794 5795 5796 5798 5798 5800 5801 5801 5802 5803 5803 5804 5804 5805 5805 5806 5806 5807 5808 5809 5809 5810 5810 5810 5810 5811 5811 5812 5812 5813 5814 5814 5814 5814 5814 5814 5814 5814 5814 5815 5816 5816 5817 5818 5818 5819 5819 5819 5819
5654 5658 5665 5672 5676 5679 5685 5690 5696 5702 5708 5713 5717 5721 5726 5731 5735 5739 5745 5749 5751 5754 5757 5759 5760 5761 5765 5769 5773 5775 5777 5779 5781 5784 5786 5788 5789 5791 5792 5794 5796 5797 5798 5798 5799 5800 5800 5801 5802 5803 5803 5803 5804 5804 5805 5806 5806 5807 5807 5807 5807 5808 5809 5809 5809 5810 5810 5811 5811 5811 5811 5811 5811 5811 5812 5812 5813 5814 5815 5816 5816 5817 5817 5817 5818 5818
5649 5655 5662 5667 5672 5678 5682 5687 5694 5700 5705 5710 5714 5719 5723 5727 5731 5736 5741 5745 5748 5750 5753 5755 5756 5759 5763 5766 5770 5772 5774 5777 5779 5781 5784 5786 5787 5789 5791 5792 5794 5795 5795 5796 5797 5798 5798 5799 5800 5800 5800 5801 5801 5802 5803 5804 5804 5804 5804 5804 5805 5806 5806 5807 5807 5808 5808 5809 5809 5809 5809 5809 5809 5810 5810 5811 5812 5813 5813 5814 5814 5815 5815 5816 5816 5816
5646 5651 5657 5663 5669 5674 5679 5687 5693 5698 5702 5706 5711 5716 5720 5724 5729 5733 5738 5741 5744 5747 5749 5752 5755 5758 5761 5764 5768 5770 5772 5774 5776 5779 5782 5784 5786 5788 5789 5790 5791 5792 5793 5794 5795 5796 5796 5797 5797 5798 5798 5799 5799 5800 5800 5801 5802 5802 5802 5802 5803 5804 5804 5805 5805 5806 5806 5806 5807 5807 5807 5807 5808 5808 5809 5810 5811 5811 5811 5812 5813 5813 5813 5814 5814 5815
5643 5646 5653 5661 5666 5671 5679 5687 5691 5695 5699 5703 5709 5713 5717 5722 5726 5730 5736 5739 5741 5742 5743 5748 5752 5753 5756 5761 5764 5766 5768 5770 5774 5778 5780 5783 5785 5786 5787 5788 5789 5790 5791 5792 5793 5794 5795 5795 5795 5796 5796 5797 5797 5798 5798 5799 5799 5799 5799 5800 5801 5802 5802 5803 5804 5804 5805 5805 5805 5805 5806 5806 5807 5807 5808 5809 5809 5809 5810 5811 5811 5811 5812 5812 5813 5814
5637 5643 5651 5657 5663 5671 5679 5683 5686 5690 5694 5699 5705 5710 5714 5719 5723 5728 5732 5735 5737 5737 5739 5745 5748 5748 5751 5757 5760 5760 5763 5767 5773 5777 5779 5781 5783 5784 5785 5785 5787 5788 5789 5790 5791 5792 5793 5793 5793 5794 5794 5795 5795 5796 5796 5796 5797 5797 5798 5799 5799 5800 5801 5802 5803 5803 5803 5803 5804 5804 5804 5805 5805 5806 5807 5807 5808 5808 5809 5809 5809 5809 5810 5811 5811 5812
5634 5641 5648 5655 5663 5670 5674 5676 5681 5686 5691 5697 5702 5707 5712 5716 5720 5724 5728 5731 5732 5733 5738 5742 5744 5745 5747 5751 5755 5756 5762 5769 5774 5776 5777 5779 5780 5781 5782 5783 5785 5786 5787 5788 5789 5790 5791 5791 5791 5792 5793 5793 5794 5794 5794 5794 5795 5795 5796 5797 5798 5798 5799 5800 5801 5801 5801 5801 5802 5802 5803 5803 5804 5805 5805 5806 5806 5807 5807 5807 5807 5808 5809 5809 5810 5810
5633 5638 5645 5654 5659 5663 5667 5672 5677 5682 5687 5694 5699 5704 5709 5713 5717 5721 5723 5726 5727 5730 5737 5740 5741 5741 5740 5745 5752 5756 5763 5769 5771 5773 5775 5776 5778 5779 5780 5781 5783 5784 5785 5786 5787 5788 5789 5789 5790 5791 5791 5791 5792 5792 5792 5793 5793 5794 5795 5795 5796 5797 5797 5798 5799 5799 5800 5800 5800 5801 5801 5802 5802 5803 5804 5805 5805 5806 5805 5805 5806 5807 5807 5808 5808 5809
5631 5638 5644 5648 5650 5655 5661 5667 5672 5677 5683 5690 5695 5699 5704 5709 5713 5716 5718 5722 5725 5729 5734 5737 5737 5736 5736 5743 5751 5755 5761 5766 5769 5771 5772 5774 5776 5777 5778 5779 5781 5782 5783 5785 5786 5786 5787 5787 5788 5789 5789 5789 5789 5790 5791 5792 5792 5793 5793 5794 5794 5795 5796 5797 5798 5798 5799 5799 5799 5799 5800 5800 5801 5802 5802 5803 5804 5804 5803 5804 5805 5806 5806 5807 5807 5807
5629 5634 5638 5640 5646 5652 5657 5663 5669 5674 5679 5685 5689 5693 5697 5702 5705 5709 5714 5718 5723 5727 5731 5734 5734 5732 5734 5742 5748 5753 5759 5764 5767 5769 5770 5771 5772 5774 5775 5777 5778 5780 5782 5783 5784 5785 5785 5786 5786 5787 5787 5787 5788 5789 5790 5790 5791 5791 5792 5792 5793 5794 5795 5796 5796 5797 5797 5798 5798 5798 5799 5799 5800 5800 5801 5801 5802 5802 5802 5803 5804 5805 5805 5805 5805 5805
5625 5629 5635 5642 5649 5653 5658 5664 5669 5674 5678 5683 5687 5690 5694 5698 5701 5706 5711 5715 5720 5723 5727 5730 5729 5727 5732 5739 5746 5753 5758 5760 5762 5763 5765 5767 5769 5771 5773 5775 5777 5778 5780 5782 5783 5783 5783 5784 5784 5784 5785 5786 5786 5788 5788 5789 5789 5790 5790 5791 5792 5793 5794 5795 5795 5796 5796 5796 5796 5797 5797 5798 5798 5799 5799 5800 5800 5800 5801 5802 5803 5803 5803 5803 5803 5802
5625 5631 5639 5645 5649 5654 5658 5662 5666 5670 5675 5681 5685 5688 5691 5697 5703 5708 5712 5716 5719 5721 5723 5725 5725 5726 5732 5739 5746 5752 5754 5754 5756 5758 5761 5763 5766 5769 5771 5773 5775 5776 5778 5780 5781 5781 5781 5782 5782 5782 5783 5784 5785 5786 5787 5787 5788 5788 5789 5790 5791 5792 5793 5793 5793 5794 5794 5794 5794 5795 5796 5797 5797 5798 5798 5798 5799 5799 5801 5801 5801 5801 5801 5801 5801 5800
5626 5633 5639 5642 5646 5652 5656 5660 5662 5666 5672 5678 5682 5684 5690 5698 5703 5707 5712 5715 5717 5718 5719 5722 5725 5727 5731 5737 5743 5748 5749 5751 5753 5755 5758 5761 5764 5767 5769 5771 5773 5774 5776 5777 5778 5779 5779 5780 5780 5780 5781 5782 5784 5785 5786 5786 5786 5787 5787 5788 5789 5790 5791 5792 5792 5792 5792 5793 5793 5794 5795 5796 5796 5796 5797 5797 5798 5799 5800 5800 5800 5800 5799 5799 5799 5799
5625 5632 5636 5639 5644 5649 5653 5658 5661 5665 5670 5676 5680 5684 5691 5697 5700 5705 5710 5712 5714 5715 5716 5720 5724 5725 5728 5733 5739 5743 5746 5748 5750 5753 5756 5759 5762 5765 5767 5769 5771 5772 5773 5775 5776 5777 5777 5778 5778 5778 5779 5781 5782 5783 5783 5784 5784 5785 5786 5786 5787 5788 5789 5790 5790 5791 5791 5792 5792 5793 5794 5794 5795 5795 5796 5796 5797 5798 5798 5798 5798 5798 5797 5797 5797 5797
5622 5629 5633 5637 5642 5647 5651 5655 5658 5662 5670 5676 5679 5684 5689 5692 5696 5702 5706 5708 5711 5713 5714 5718 5721 5722 5725 5731 5737 5742 5744 5746 5749 5751 5754 5757 5761 5764 5766 5767 5768 5770 5771 5772 5773 5774 5775 5776 5776 5777 5778 5778 5780 5781 5782 5782 5782 5783 5784 5785 5786 5787 5787 5788 5789 5790 5790 5791 5791 5792 5792 5793 5794 5794 5795 5795 5796 5796 5796 5796 5796 5796 5796 5796 5796 5795
5620 5626 5631 5634 5640 5645 5648 5652 5655 5661 5668 5673 5675 5681 5688 5692 5696 5700 5703 5705 5709 5711 5713 5716 5718 5719 5723 5729 5736 5740 5743 5745 5747 5750 5753 5757 5760 5763 5764 5765 5766 5767 5769 5770 5771 5772 5773 5774 5774 5775 5775 5776 5777 5778 5779 5780 5780 5781 5782 5783 5784 5785 5786 5787 5787 5788 5789 5789 5790 5790 5791 5791 5792 5793 5793 5794 5794 5795 5795 5795 5795 5794 5794 5794 5794 5793
5619 5625 5628 5633 5639 5642 5644 5651 5658 5662 5666 5667 5669 5676 5684 5690 5695 5700 5702 5704 5707 5709 5712 5714 5715 5718 5723 5729 5734 5738 5741 5744 5746 5749 5753 5756 5759 5760 5762 5763 5764 5766 5767 5768 5768 5769 5770 5771 5772 5773 5773 5774 5775 5776 5777 5778 5778 5779 5780 5781 5782 5783 5784 5785 5786 5786 5787 5788 5788 5789 5789 5790 5790 5791 5792 5792 5793 5793 5793 5793 5793 5793 5792 5792 5791 5791
5619 5624 5627 5631 5635 5640 5647 5654 5660 5664 5666 5667 5669 5675 5681 5687 5692 5696 5698 5702 5706 5708 5710 5712 5714 5718 5723 5727 5732 5736 5739 5742 5745 5748 5751 5754 5757 5759 5760 5762 5763 5764 5765 5766 5766 5767 5768 5769 5770 5771 5772 5773 5773 5774 5775 5775 5776 5777 5778 5780 5781 5782 5783 5783 5784 5785 5785 5786 5787 5787 5788 5788 5789 5790 5790 5790 5791 5791 5791 5791 5791 5791 5790 5789 5789 5788
5620 5623 5626 5630 5635 5641 5648 5653 5657 5662 5666 5668 5671 5676 5681 5685 5689 5692 5696 5700 5704 5707 5709 5710 5713 5717 5721 5725 5730 5733 5737 5740 5743 5746 5749 5752 5755 5757 5758 5760 5761 5762 5764 5764 5765 5765 5766 5767 5768 5769 5770 5771 5771 5772 5773 5773 5774 5775 5776 5778 5779 5780 5781 5782 5782 5783 5784 5784 5785 5786 5786 5787 5787 5788 5788 5789 5789 5790 5789 5789 5789 5788 5788 5787 5787 5786
5619 5623 5627 5631 5635 5639 5645 5650 5655 5660 5663 5666 5670 5676 5681 5685 5689 5693 5697 5701 5704 5706 5708 5710 5712 5716 5720 5723 5727 5730 5733 5737 5740 5743 5746 5749 5752 5755 5756 5757 5759 5761 5762 5763 5763 5764 5764 5765 5766 5767 5768 5769 5769 5770 5770 5771 5772 5773 5774 5776 5777 5778 5779 5780 5781 5781 5782 5783 5783 5784 5785 5785 5786 5786 5786 5787 5787 5787 5787 5787 5786 5786 5785 5785 5784 5783
5621 5625 5627 5630 5633 5636 5641 5645 5650 5654 5658 5663 5669 5674 5680 5684 5688 5692 5696 5700 5703 5705 5707 5710 5712 5715 5719 5722 5724 5727 5730 5734 5737 5740 5742 5746 5749 5752 5754 5755 5757 5758 5760 5761 5762 5762 5763 5764 5765 5766 5766 5767 5767 5768 5769 5769 5770 5771 5772 5774 5775 5776 5776 5777 5778 5779 5780 5781 5781 5782 5782 5783 5783 5784 5784 5785 5785 5785 5785 5784 5784 5783 5783 5782 5782 5781
5621 5623 5625 5628 5632 5634 5637 5641 5646 5652 5657 5662 5668 5673 5678 5683 5687 5690 5693 5696 5699 5703 5706 5708 5711 5714 5717 5720 5722 5725 5728 5731 5734 5737 5740 5743 5746 5748 5751 5753 5754 5756 5757 5758 5759 5760 5761 5762 5763 5764 5764 5765 5765 5766 5767 5767 5768 5769 5770 5771 5773 5774 5774 5775 5776 5776 5777 5778 5779 5779 5780 5780 5781 5781 5782 5782 5782 5782 5782 5781 5781 5781 5780 5780 5779 5778
5619 5622 5624 5628 5632 5636 5641 5646 5650 5654 5658 5661 5666 5671 5676 5681 5685 5688 5691 5693 5697 5702 5704 5707 5710 5713 5715 5718 5720 5723 5727 5730 5733 5735 5738 5741 5743 5745 5748 5750 5751 5753 5754 5755 5756 5758 5759 5760 5761 5761 5762 5763 5763 5764 5764 5765 5765 5766 5768 5769 5770 5771 5772 5773 5773 5774 5775 5776 5776 5777 5777 5778 5778 5779 5779 5780 5780 5780 5779 5779 5778 5778 5778 5778 5777 5776
5619 5622 5625 5629 5633 5638 5644 5648 5651 5654 5658 5661 5665 5669 5674 5679 5682 5686 5689 5692 5696 5700 5703 5706 5709 5711 5714 5716 5719 5722 5725 5728 5731 5734 5736 5739 5741 5743 5744 5746 5748 5749 5750 5751 5753 5754 5756 5757 5758 5759 5760 5761 5761 5761 5762 5762 5763 5764 5766 5767 5768 5769 5770 5770 5771 5772 5773 5773 5774 5774 5775 5775 5776 5776 5777 5777 5777 5777 5777 5776 5776 5776 5776 5775 5774 5773
5620 5622 5626 5630 5634 5638 5643 5647 5651 5654 5658 5661 5666 5669 5673 5677 5681 5684 5687 5692 5695 5698 5701 5705 5707 5710 5713 5715 5717 5721 5723 5726 5730 5732 5734 5736 5738 5739 5741 5742 5744 5746 5747 5748 5749 5751 5752 5754 5755 5756 5757 5758 5758 5758 5759 5760 5760 5762 5764 5765 5766 5767 5767 5768 5769 5769 5770 5771 5771 5772 5772 5773 5773 5774 5774 5775 5775 5775 5775 5774 5774 5774 5773 5772 5771 5770
5621 5624 5627 5630 5634 5638 5642 5646 5650 5654 5658 5662 5666 5670 5673 5676 5680 5683 5687 5691 5694 5696 5700 5703 5706 5709 5712 5714 5716 5719 5722 5725 5727 5730 5732 5734 5735 5736 5738 5739 5741 5743 5744 5745 5746 5747 5749 5750 5752 5753 5753 5755 5756 5756 5756 5757 5758 5760 5761 5762 5763 5764 5765 5766 5766 5767 5768 5768 5768 5769 5770 5770 5771 5771 5772 5772 5772 5772 5772 5772 5772 5771 5770 5769 5768 5767
5622 5625 5629 5631 5634 5638 5642 5645 5649 5653 5657 5661 5666 5669 5672 5675 5679 5682 5686 5689 5692 5695 5698 5702 5704 5707 5709 5712 5714 5717 5719 5722 5725 5728 5731 5732 5733 5734 5735 5736 5738 5739 5741 5742 5743 5744 5746 5747 5749 5750 5751 5752 5753 5753 5754 5755 5756 5757 5758 5760 5761 5761 5762 5763 5764 5764 5765 5765 5766 5767 5767 5768 5768 5769 5769 5770 5770 5770 5769 5769 5769 5768 5767 5766 5765 5764
5623 5627 5629 5632 5635 5638 5642 5645 5649 5652 5656 5661 5665 5668 5670 5674 5678 5681 5684 5687 5690 5694 5697 5700 5703 5705 5707 5710 5713 5715 5718 5720 5724 5727 5729 5730 5732 5733 5734 5734 5736 5737 5739 5740 5741 5742 5743 5745 5747 5748 5749 5750 5750 5751 5752 5752 5754 5755 5756 5757 5758 5758 5759 5760 5761 5762 5762 5763 5764 5764 5765 5765 5766 5766 5767 5767 5767 5767 5766 5766 5766 5765 5764 5763 5762 5760
5624 5627 5630 5633 5636 5638 5641 5645 5648 5652 5656 5660 5663 5666 5669 5674 5677 5679 5683 5686 5689 5692 5695 5698 5701 5704 5706 5708 5711 5714 5716 5719 5723 5726 5728 5729 5731 5732 5732 5733 5734 5735 5737 5738 5739 5740 5741 5743 5744 5745 5746 5747 5748 5748 5749 5750 5751 5753 5753 5754 5755 5755 5756 5757 5758 5759 5760 5761 5761 5762 5763 5763 5763 5763 5764 5764 5764 5764 5763 5763 5762 5761 5760 5759 5758 5757
5625 5628 5630 5633 5636 5639 5641 5645 5648 5652 5655 5659 5662 5665 5669 5672 5675 5678 5682 5685 5687 5690 5693 5697 5700 5702 5704 5707 5710 5713 5716 5719 5723 5726 5727 5729 5730 5730 5731 5731 5732 5734 5735 5736 5738 5738 5739 5741 5742 5743 5744 5745 5745 5746 5747 5747 5749 5750 5750 5751 5751 5752 5753 5754 5756 5757 5757 5758 5759 5759 5760 5760 5760 5760 5761 5761 5761 5760 5760 5759 5758 5758 5757 5756 5755 5754
5625 5628 5631 5633 5636 5639 5642 5644 5648 5652 5655 5658 5661 5664 5668 5671 5674 5677 5680 5683 5685 5688 5691 5695 5697 5700 5703 5706 5709 5712 5715 5718 5720 5723 5725 5727 5728 5728 5729 5730 5731 5733 5734 5735 5735 5736 5737 5738 5739 5740 5741 5742 5743 5744 5745 5745 5746 5746 5747 5748 5749 5750 5751 5752 5753 5754 5754 5755 5756 5756 5757 5757 5757 5757 5757 5757 5757 5756 5756 5756 5755 5754 5753 5753 5752 5751
5625 5628 5631 5634 5636 5639 5641 5644 5648 5651 5654 5657 5660 5663 5666 5670 5673 5676 5680 5682 5684 5687 5690 5693 5696 5699 5701 5703 5706 5708 5711 5714 5716 5719 5722 5724 5725 5726 5727 5729 5730 5730 5731 5732 5733 5734 5735 5735 5736 5737 5738 5739 5740 5741 5742 5742 5743 5744 5745 5745 5746 5747 5748 5749 5750 5751 5751 5752 5752 5753 5753 5754 5754 5754 5754 5753 5753 5753 5752 5752 5751 5750 5750 5749 5748 5747
5625 5627 5630 5633 5636 5638 5641 5644 5647 5650 5653 5656 5659 5662 5665 5669 5672 5675 5679 5681 5683 5686 5688 5690 5693 5696 5698 5700 5703 5705 5708 5710 5713 5716 5719 5722 5723 5724 5725 5726 5727 5728 5729 5730 5730 5731 5731 5732 5733 5734 5735 5736 5737 5737 5738 5739 5739 5740 5741 5742 5743 5744 5745 5745 5747 5748 5748 5749 5749 5749 5749 5750 5750 5750 5750 5750 5749 5749 5748 5748 5747 5747 5746 5746 5745 5744
5624 5627 5629 5632 5635 5638 5640 5644 5646 5649 5652 5655 5658 5661 5664 5668 5671 5674 5677 5680 5681 5684 5686 5688 5691 5693 5696 5698 5700 5703 5705 5707 5710 5713 5717 5719 5720 5721 5722 5723 5724 5726 5727 5727 5727 5728 5728 5729 5730 5731 5732 5733 5733 5734 5734 5735 5735 5736 5737 5738 5739 5741 5741 5742 5743 5744 5745 5745 5745 5745 5745 5746 5746 5746 5746 5746 5745 5745 5744 5744 5744 5743 5743 5742 5741 5740
5624 5626 5629 5632 5635 5637 5640 5642 5645 5647 5651 5654 5657 5659 5662 5666 5669 5672 5675 5677 5679 5681 5684 5686 5688 5691 5694 5696 5698 5700 5702 5704 5707 5711 5714 5716 5717 5718 5719 5720 5721 5723 5723 5724 5724 5724 5725 5726 5727 5727 5728 5729 5730 5730 5730 5731 5732 5732 5733 5734 5735 5737 5738 5739 5740 5740 5740 5740 5740 5740 5741 5742 5742 5742 5742 5742 5741 5741 5740 5740 5740 5740 5739 5738 5738 5737
5624 5626 5629 5631 5633 5636 5638 5641 5643 5646 5649 5653 5656 5658 5661 5664 5667 5670 5673 5674 5676 5679 5682 5684 5687 5690 5692 5694 5696 5697 5699 5702 5705 5708 5710 5711 5712 5714 5715 5716 5717 5718 5719 5719 5719 5720 5721 5722 5722 5723 5724 5725 5726 5727 5727 5728 5728 5729 5730 5731 5732 5733 5734 5735 5735 5736 5735 5735 5736 5736 5737 5737 5737 5737 5737 5737 5737 5737 5737 5737 5737 5736 5735 5735 5734 5733
5624 5627 5629 5630 5633 5635 5638 5640 5642 5645 5648 5651 5654 5657 5659 5662 5666 5668 5671 5672 5674 5678 5680 5683 5685 5687 5689 5691 5693 5695 5697 5699 5702 5703 5704 5706 5708 5710 5711 5712 5712 5713 5713 5714 5714 5715 5716 5717 5718 5719 5720 5721 5722 5723 5723 5724 5725 5726 5727 5727 5728 5729 5730 5730 5731 5731 5731 5731 5731 5732 5732 5732 5732 5733 5733 5733 5733 5733 5733 5733 5733 5732 5732 5731 5730 5729
5624 5626 5628 5630 5632 5635 5637 5640 5642 5645 5648 5651 5654 5656 5658 5662 5665 5667 5669 5671 5673 5675 5677 5680 5683 5685 5687 5688 5690 5693 5694 5695 5697 5698 5700 5701 5704 5706 5707 5708 5708 5708 5708 5709 5709 5710 5711 5712 5713 5714 5715 5716 5718 5719 5719 5720 5721 5722 5723 5724 5724 5725 5725 5726 5727 5726 5727 5727 5727 5727 5728 5728 5728 5728 5729 5729 5729 5729 5729 5729 5729 5729 5728 5727 5726 5726
5624 5626 5628 5630 5632 5635 5637 5640 5642 5645 5648 5651 5653 5656 5658 5661 5663 5664 5667 5669 5671 5673 5674 5677 5679 5681 5683 5685 5687 5689 5691 5691 5692 5694 5695 5697 5698 5700 5701 5702 5702 5702 5703 5703 5704 5705 5706 5707 5708 5709 5710 5712 5713 5714 5715 5715 5716 5717 5718 5719 5719 5720 5721 5722 5722 5722 5722 5722 5722 5723 5723 5723 5724 5724 5725 5725 5725 5725 5725 5725 5724 5724 5724 5723 5723 5722
5623 5626 5628 5630 5632 5634 5636 5639 5642 5644 5647 5650 5653 5655 5657 5659 5661 5663 5665 5667 5669 5670 5672 5674 5676 5678 5680 5682 5684 5685 5686 5688 5689 5690 5691 5693 5694 5695 5696 5697 5697 5697 5697 5698 5699 5700 5701 5702 5703 5704 5705 5706 5708 5709 5710 5711 5712 5713 5714 5714 5715 5715 5716 5717 5718 5718 5718 5719 5719 5718 5718 5718 5719 5720 5720 5721 5721 5721 5721 5720 5720 5720 5720 5719 5719 5718
5623 5625 5627 5629 5631 5634 5636 5638 5641 5643 5646 5649 5651 5653 5655 5657 5659 5661 5663 5665 5666 5668 5669 5671 5673 5675 5677 5678 5679 5681 5682 5683 5685 5686 5687 5689 5689 5690 5691 5692 5692 5692 5692 5693 5694 5696 5697 5698 5698 5699 5700 5702 5703 5704 5705 5706 5707 5708 5709 5709 5710 5711 5712 5713 5713 5714 5714 5715 5715 5714 5713 5714 5715 5715 5716 5716 5716 5716 5716 5716 5716 5716 5716 5715 5715 5714
5621 5624 5626 5628 5630 5632 5635 5638 5640 5642 5644 5646 5648 5650 5653 5655 5657 5659 5661 5662 5664 5665 5667 5669 5670 5671 5672 5674 5675 5677 5678 5679 5680 5682 5683 5684 5686 5687 5688 5688 5689 5689 5689 5689 5691 5692 5693 5693 5694 5695 5696 5697 5698 5700 5700 5701 5702 5703 5704 5705 5706 5707 5707 5708 5708 5709 5709 5710 5710 5709 5709 5709 5710 5710 5711 5711 5712 5712 5712 5712 5712 5712 5712 5711 5710 5710
5620 5623 5625 5627 5628 5631 5633 5636 5638 5641 5642 5644 5646 5648 5650 5652 5654 5656 5658 5660 5661 5662 5664 5665 5666 5667 5668 5670 5671 5672 5674 5675 5676 5678 5679 5681 5682 5683 5684 5685 5685 5685 5685 5686 5687 5687 5688 5689 5690 5691 5692 5693 5694 5695 5695 5696 5697 5698 5699 5700 5701 5702 5703 5703 5703 5704 5705 5705 5705 5704 5704 5705 5705 5706 5706 5707 5707 5707 5707 5707 5707 5707 5707 5706 5706 5705
5619 5621 5623 5625 5627 5629 5631 5634 5636 5639 5641 5643 5644 5646 5648 5649 5651 5653 5655 5656 5658 5659 5660 5661 5662 5663 5665 5666 5667 5668 5669 5671 5672 5674 5675 5677 5678 5679 5680 5681 5681 5681 5682 5682 5682 5683 5684 5685 5686 5687 5687 5688 5689 5690 5691 5692 5692 5693 5694 5695 5696 5697 5697 5698 5699 5699 5700 5700 5700 5700 5700 5700 5701 5701 5702 5702 5702 5703 5703 5703 5703 5703 5702 5701 5701 5701
5618 5620 5621 5623 5625 5627 5630 5632 5634 5637 5639 5641 5643 5644 5645 5647 5649 5650 5652 5653 5654 5655 5656 5657 5659 5660 5661 5662 5663 5664 5665 5667 5668 5669 5671 5672 5673 5675 5676 5676 5677 5677 5678 5678 5679 5679 5680 5681 5682 5682 5683 5684 5684 5685 5686 5687 5687 5689 5690 5691 5691 5692 5693 5693 5694 5694 5694 5695 5695 5695 5695 5696 5696 5696 5697 5697 5698 5698 5698 5698 5698 5698 5698 5697 5696 5696
5617 5618 5619 5621 5624 5626 5628 5630 5632 5634 5636 5638 5640 5642 5643 5645 5646 5647 5649 5650 5652 5653 5653 5654 5655 5656 5657 5658 5659 5661 5662 5663 5664 5665 5667 5668 5669 5670 5671 5672 5672 5673 5674 5675 5675 5676 5677 5677 5678 5678 5679 5679 5680 5681 5681 5682 5683 5684 5685 5686 5687 5687 5688 5688 5689 5689 5690 5690 5690 5691 5690 5690 5691 5692 5692 5693 5693 5694 5694 5693 5693 5693 5693 5692 5692 5691
5615 5616 5618 5620 5622 5624 5626 5627 5629 5631 5633 5635 5637 5639 5640 5642 5643 5644 5646 5647 5648 5650 5651 5651 5652 5653 5654 5655 5656 5658 5659 5660 5661 5662 5663 5664 5665 5666 5667 5667 5668 5669 5670 5671 5671 5672 5672 5673 5673 5674 5675 5675 5676 5677 5677 5678 5679 5680 5681 5682 5682 5683 5683 5684 5684 5685 5685 5685 5686 5686 5685 5685 5686 5687 5687 5688 5688 5689 5689 5689 5688 5688 5688 5688 5687 5687